Time,TemperatureF,DewpointF,PressureIn,WindDirection,WindDirectionDegrees,WindSpeedMPH,WindSpeedGustMPH,Humidity,HourlyPrecipIn,Conditions,Clouds,dailyrainin,SoftwareType,DateUTC
2013-07-12 00:09:00,76.4,69.0,30.07,ENE,71,0.0,7.0,78,0.00,,,0.00,weatherlink.com 1.10,2013-07-12 10:09:00,
2013-07-12 00:27:00,76.0,70.0,30.07,NE,49,0.0,5.0,82,0.00,,,0.00,weatherlink.com 1.10,2013-07-12 10:27:00,
2013-07-12 00:46:00,76.0,70.0,30.06,SE,132,0.0,5.0,82,0.00,,,0.00,weatherlink.com 1.10,2013-07-12 10:46:00,
2013-07-12 01:05:00,75.9,70.0,30.06,ENE,69,0.0,8.0,81,0.00,,,0.00,weatherlink.com 1.10,2013-07-12 11:05:00,
2013-07-12 01:23:00,76.0,69.0,30.05,ESE,109,0.0,7.0,79,0.00,,,0.00,weatherlink.com 1.10,2013-07-12 11:23:00,
2013-07-12 01:40:00,75.8,69.0,30.05,East,82,0.0,4.0,80,0.00,,,0.00,weatherlink.com 1.10,2013-07-12 11:40:00,
2013-07-12 01:59:00,75.6,69.0,30.04,East,90,0.0,5.0,81,0.00,,,0.00,weatherlink.com 1.10,2013-07-12 11:59:00,
2013-07-12 02:17:00,76.0,69.0,30.04,NE,51,0.0,4.0,80,0.00,,,0.00,weatherlink.com 1.10,2013-07-12 12:17:00,
2013-07-12 02:35:00,76.0,70.0,30.04,NNE,26,1.0,4.0,81,0.00,,,0.00,weatherlink.com 1.10,2013-07-12 12:35:00,
2013-07-12 02:53:00,75.8,70.0,30.04,NNE,30,0.0,3.0,82,0.00,,,0.00,weatherlink.com 1.10,2013-07-12 12:53:00,
2013-07-12 03:12:00,75.5,69.0,30.04,ESE,109,0.0,2.0,81,0.00,,,0.00,weatherlink.com 1.10,2013-07-12 13:12:00,
2013-07-12 03:29:00,75.4,69.0,30.04,ENE,74,0.0,4.0,80,0.00,,,0.00,weatherlink.com 1.10,2013-07-12 13:29:00,
2013-07-12 03:48:00,75.4,68.0,30.03,ESE,113,0.0,4.0,79,0.00,,,0.00,weatherlink.com 1.10,2013-07-12 13:48:00,
2013-07-12 04:06:00,75.8,70.0,30.03,NE,37,0.0,5.0,83,0.00,,,0.00,weatherlink.com 1.10,2013-07-12 14:06:00,
2013-07-12 04:24:00,74.9,71.0,30.03,NE,46,1.0,8.0,87,0.02,,,0.02,weatherlink.com 1.10,2013-07-12 14:24:00,
2013-07-12 04:43:00,74.4,71.0,30.02,NE,42,0.0,7.0,88,0.02,,,0.02,weatherlink.com 1.10,2013-07-12 14:43:00,
2013-07-12 05:01:00,74.2,70.0,30.02,NNE,21,1.0,5.0,88,0.02,,,0.02,weatherlink.com 1.10,2013-07-12 15:01:00,
2013-07-12 05:19:00,73.9,70.0,30.02,ENE,66,0.0,4.0,88,0.00,,,0.02,weatherlink.com 1.10,2013-07-12 15:19:00,
2013-07-12 05:37:00,74.1,70.0,30.02,NE,34,0.0,5.0,88,0.00,,,0.02,weatherlink.com 1.10,2013-07-12 15:37:00,
2013-07-12 05:55:00,74.4,70.0,30.03,NNE,31,4.0,4.0,87,0.00,,,0.02,weatherlink.com 1.10,2013-07-12 15:55:00,
2013-07-12 06:14:00,74.6,70.0,30.03,East,94,2.0,5.0,87,0.00,,,0.02,weatherlink.com 1.10,2013-07-12 16:14:00,
2013-07-12 06:32:00,74.9,70.0,30.03,ENE,70,3.0,5.0,85,0.00,,,0.02,weatherlink.com 1.10,2013-07-12 16:32:00,
2013-07-12 06:50:00,75.3,70.0,30.04,ENE,67,1.0,5.0,83,0.00,,,0.02,weatherlink.com 1.10,2013-07-12 16:50:00,
2013-07-12 07:08:00,76.2,71.0,30.04,NNE,22,1.0,8.0,84,0.00,,,0.02,weatherlink.com 1.10,2013-07-12 17:08:00,
2013-07-12 07:26:00,76.6,71.0,30.04,NNE,27,0.0,5.0,82,0.00,,,0.02,weatherlink.com 1.10,2013-07-12 17:26:00,
2013-07-12 07:44:00,77.3,71.0,30.04,ENE,60,0.0,7.0,80,0.00,,,0.02,weatherlink.com 1.10,2013-07-12 17:44:00,
2013-07-12 08:21:00,78.7,71.0,30.04,ESE,119,0.0,6.0,77,0.00,,,0.02,weatherlink.com 1.10,2013-07-12 18:21:00,
2013-07-12 08:41:00,77.8,71.0,30.04,ENE,74,3.0,8.0,79,0.00,,,0.02,weatherlink.com 1.10,2013-07-12 18:41:00,
2013-07-12 08:59:00,78.6,72.0,30.04,NNE,26,5.0,7.0,80,0.00,,,0.02,weatherlink.com 1.10,2013-07-12 18:59:00,
2013-07-12 09:17:00,79.1,72.0,30.04,NNE,23,8.0,9.0,79,0.00,,,0.02,weatherlink.com 1.10,2013-07-12 19:17:00,
2013-07-12 09:35:00,79.8,72.0,30.04,NE,56,4.0,9.0,76,0.00,,,0.02,weatherlink.com 1.10,2013-07-12 19:35:00,
2013-07-12 09:54:00,80.4,71.0,30.04,NNE,14,5.0,11.0,74,0.00,,,0.02,weatherlink.com 1.10,2013-07-12 19:54:00,
2013-07-12 10:12:00,80.2,72.0,30.04,NNE,29,9.0,10.0,77,0.00,,,0.02,weatherlink.com 1.10,2013-07-12 20:12:00,
2013-07-12 10:30:00,80.5,72.0,30.04,ESE,114,5.0,11.0,76,0.00,,,0.02,weatherlink.com 1.10,2013-07-12 20:30:00,
2013-07-12 10:48:00,81.8,73.0,30.04,NE,45,0.0,8.0,74,0.00,,,0.02,weatherlink.com 1.10,2013-07-12 20:48:00,
2013-07-12 11:07:00,81.8,72.0,30.04,SE,138,2.0,11.0,72,0.00,,,0.02,weatherlink.com 1.10,2013-07-12 21:07:00,
2013-07-12 11:25:00,81.7,72.0,30.04,ESE,117,7.0,11.0,73,0.00,,,0.02,weatherlink.com 1.10,2013-07-12 21:25:00,
2013-07-12 11:43:00,81.3,73.0,30.04,ESE,117,0.0,10.0,75,0.00,,,0.02,weatherlink.com 1.10,2013-07-12 21:43:00,
2013-07-12 12:20:00,76.4,72.0,30.04,NNW,345,0.0,7.0,87,0.00,,,0.02,weatherlink.com 1.10,2013-07-12 22:20:00,
2013-07-12 12:39:00,79.0,72.0,30.02,NNE,27,5.0,8.0,78,0.00,,,0.02,weatherlink.com 1.10,2013-07-12 22:39:00,
2013-07-12 12:57:00,79.3,72.0,30.02,ENE,75,3.0,8.0,79,0.00,,,0.02,weatherlink.com 1.10,2013-07-12 22:57:00,
2013-07-12 13:14:00,80.3,71.0,30.02,North,5,2.0,9.0,73,0.00,,,0.02,weatherlink.com 1.10,2013-07-12 23:14:00,
2013-07-12 13:35:00,79.8,72.0,30.01,North,360,4.0,10.0,76,0.00,,,0.02,weatherlink.com 1.10,2013-07-12 23:35:00,
2013-07-12 14:29:00,79.6,72.0,30.01,NE,48,2.0,10.0,77,0.00,,,0.02,weatherlink.com 1.10,2013-07-13 00:29:00,
2013-07-12 14:47:00,79.3,73.0,30.00,East,87,2.0,11.0,80,0.00,,,0.02,weatherlink.com 1.10,2013-07-13 00:47:00,
2013-07-12 15:05:00,78.6,72.0,30.00,NE,43,7.0,12.0,80,0.00,,,0.02,weatherlink.com 1.10,2013-07-13 01:05:00,
2013-07-12 15:23:00,78.2,72.0,30.00,East,88,0.0,8.0,81,0.00,,,0.02,weatherlink.com 1.10,2013-07-13 01:23:00,
2013-07-12 16:00:00,78.4,72.0,30.00,North,5,4.0,8.0,80,0.00,,,0.02,weatherlink.com 1.10,2013-07-13 02:00:00,
2013-07-12 16:18:00,77.9,71.0,30.00,East,94,3.0,10.0,80,0.00,,,0.02,weatherlink.com 1.10,2013-07-13 02:18:00,
2013-07-12 16:36:00,78.2,71.0,30.00,NE,49,1.0,4.0,79,0.00,,,0.02,weatherlink.com 1.10,2013-07-13 02:36:00,
2013-07-12 16:54:00,77.5,71.0,29.99,NE,55,0.0,10.0,81,0.00,,,0.02,weatherlink.com 1.10,2013-07-13 02:54:00,
2013-07-12 17:12:00,77.3,71.0,29.99,East,85,0.0,9.0,80,0.00,,,0.02,weatherlink.com 1.10,2013-07-13 03:12:00,
2013-07-12 17:30:00,77.5,71.0,30.00,ESE,106,0.0,6.0,80,0.00,,,0.02,weatherlink.com 1.10,2013-07-13 03:30:00,
2013-07-12 17:48:00,77.4,71.0,29.99,ENE,58,0.0,10.0,81,0.00,,,0.02,weatherlink.com 1.10,2013-07-13 03:48:00,
2013-07-12 18:06:00,76.8,71.0,30.00,ENE,75,2.0,7.0,81,0.00,,,0.02,weatherlink.com 1.10,2013-07-13 04:06:00,
2013-07-12 18:25:00,76.8,71.0,30.00,NE,40,0.0,11.0,81,0.00,,,0.02,weatherlink.com 1.10,2013-07-13 04:25:00,
2013-07-12 18:43:00,76.7,70.0,30.00,SE,125,3.0,7.0,80,0.00,,,0.02,weatherlink.com 1.10,2013-07-13 04:43:00,
2013-07-12 19:02:00,77.0,69.0,30.01,SE,131,5.0,6.0,76,0.00,,,0.02,weatherlink.com 1.10,2013-07-13 05:02:00,
2013-07-12 19:19:00,77.0,69.0,30.01,East,101,3.0,9.0,76,0.00,,,0.02,weatherlink.com 1.10,2013-07-13 05:19:00,
2013-07-12 19:38:00,76.9,69.0,30.01,ENE,77,0.0,10.0,77,0.00,,,0.02,weatherlink.com 1.10,2013-07-13 05:38:00,
2013-07-12 19:56:00,76.8,70.0,30.02,NE,37,0.0,10.0,79,0.00,,,0.02,weatherlink.com 1.10,2013-07-13 05:56:00,
2013-07-12 20:13:00,76.8,70.0,30.02,SE,146,0.0,7.0,80,0.00,,,0.02,weatherlink.com 1.10,2013-07-13 06:13:00,
2013-07-12 20:32:00,76.9,71.0,30.03,NE,40,0.0,6.0,81,0.00,,,0.02,weatherlink.com 1.10,2013-07-13 06:32:00,
2013-07-12 20:50:00,77.0,71.0,30.03,ENE,67,0.0,8.0,81,0.00,,,0.02,weatherlink.com 1.10,2013-07-13 06:50:00,
2013-07-12 21:08:00,77.1,70.0,30.03,North,10,0.0,6.0,79,0.00,,,0.02,weatherlink.com 1.10,2013-07-13 07:08:00,
2013-07-12 21:26:00,77.0,70.0,30.04,ESE,113,0.0,6.0,79,0.00,,,0.02,weatherlink.com 1.10,2013-07-13 07:26:00,
2013-07-12 21:44:00,77.0,70.0,30.03,NE,40,3.0,9.0,79,0.00,,,0.02,weatherlink.com 1.10,2013-07-13 07:44:00,
2013-07-12 22:03:00,76.9,70.0,30.04,East,92,3.0,7.0,79,0.00,,,0.02,weatherlink.com 1.10,2013-07-13 08:03:00,
2013-07-12 22:21:00,77.0,70.0,30.04,ENE,57,2.0,9.0,78,0.00,,,0.02,weatherlink.com 1.10,2013-07-13 08:21:00,
2013-07-12 22:38:00,77.1,70.0,30.04,ESE,111,0.0,7.0,79,0.00,,,0.02,weatherlink.com 1.10,2013-07-13 08:38:00,
2013-07-12 22:56:00,77.0,70.0,30.04,ENE,78,1.0,9.0,78,0.00,,,0.02,weatherlink.com 1.10,2013-07-13 08:56:00,
2013-07-12 23:15:00,76.9,70.0,30.04,ENE,64,0.0,5.0,78,0.00,,,0.02,weatherlink.com 1.10,2013-07-13 09:15:00,
2013-07-12 23:33:00,76.8,69.0,30.04,ESE,110,0.0,11.0,78,0.00,,,0.02,weatherlink.com 1.10,2013-07-13 09:33:00,
2013-07-12 23:51:00,76.7,69.0,30.03,ESE,114,0.0,5.0,77,0.00,,,0.02,weatherlink.com 1.10,2013-07-13 09:51:00,